Погода в Валуйки

Погода в Валуйки : погода сейчас, прогноз погоды и архив. Всё, что Вы хотите узнать о погоде в Валуйки!

Хотите узнать прогноз погоды в Валуйки? Тогда Вам сюда: Погода в Валуйки

Поиск расширенной информации на нашем сайте:

Другие новости

Новости СМИ2

Главная страница сайта

Новости сайта

03.07.2017

Напоминаем, что на нашем специализированном сайте Метеоцентр.Азия вы можете получить высокодетализированные автоматические прогнозы погоды по пунктам России, СНГ и мира в авиационном формате (включающие направление и скорость ветра, видимость, явления погоды, количество и форму облачности, нижнюю и верхнюю границу облачности).


Погода в Валуйки - сегодня

Время (UTC), дата Ветер
(°,м/с) 
Видим.   Явления Облачность Т
(°С)
Тd
(°С)
f(%) Тe
(°С)
Pmin
(гПа)
dP
(гПа)
Po
(мм)
O2
(г/м3)
Тmin Tmax R s Состояние
почвы
09 17.04.18 210 (ЮЗ) 20000 м    9/0 средняя, верхняя 
[Ac trans|Ci fib]
+20.1 +8.6 47 +20  1019.3  755  282           
12 17.04.18 250 (З) 20000 м    10/0 средняя 
[Ac As]
+23.1 +6.8 35 +23  1018.7  -0.5  754  279           
15 17.04.18 240 (ЮЗ) 20000 м    10/0 средняя 
[Ac As]
+21.8 +5.3 34 +22  1018.3  -0.4  754  281           
21 17.04.18 тихо ()   10 км    8/0 средняя 
[Ac trans]
+14.6 +3.6 48 +15  1018.7  754  288           
00 18.04.18 110 (В) 10 км    6/0 средняя 
[Ac trans]
+11.6 +6.1 69 +13  1018.1  -0.7  753  290           
09 18.04.18 170 (Ю) 20000 м  {ливн. осадки}  10/0 средняя 
[Ac As]
+13.9 +7.7 66 +14  1015.6  -1.2  752  287           
21 18.04.18 тихо ()   10 км    10/0 средняя 
[Ac As]
+8.9 +6.2 83 +9  1012.7  -1.4  749  291           
00 19.04.18 260 (З) 10 км    8/0 средняя 
[Ac trans]
+8.4 +5.9 84 +8  1009.9  -2.8  747  291           
09 19.04.18 300 (СЗ) 20000 м  слаб. ливневой дождь  10/4 600 м кучево-дожд., средняя 
[Cb cap|Ac As]
+9.2 +6.7 84 +8  1003.2  -1.6  742  288           
18 19.04.18 330 (СЗ) 5{10}  10 км  {ливн. осадки}  10/0 средняя 
[Ac As]
+9 +7.1 88 +8  1001.5  0.7  741  288    +10     
21 19.04.18 330 (СЗ) 4{10}  10 км    10/0 средняя 
[Ac As]
+8.4 +5.5 82 +7  1002.2  0.6  742  289           
09 20.04.18 350 (С) 20000 м    9/0 средняя 
[Ac trans]
+10.8 +5.3 69 +10  1007.2  2.5  745  288           
21 20.04.18 300 (СЗ) 10 км    ясно 
+6.8 +1.9 71 +7  1014.3  0.9  750  295           
00 21.04.18 310 (СЗ) 10 км    ясно 
+5.2 +1.1 75 +5  1014.4  750  297           
09 21.04.18 260 (З) 4{10}  20000 м    4/0 верхняя 
[Ci sp]
+18 +0.2 30 +18  1011.2  -2.1  749  283           
21 21.04.18 240 (ЮЗ) 10 км    9/0 средняя, верхняя 
[Ac trans|Ci fib]
+16.6 +1.9 37 +16  998.3  -3.4  739  280           
21 22.04.18 230 (ЮЗ) 10 км  {ливн. осадки}  4/0 средняя 
[Ac trans]
+4.1 +2.9 92 +5  1007  0.3  745  295           
00 23.04.18 320 (СЗ) 10 км  {ливн. осадки}  ясно 
+3.7 +2.7 93 +5  1008.1  1.1  746  296           
15 23.04.18 320 (СЗ) 20000 м    3/3 1000 м 
[Cu hum]
+8.9 -6.7 32 +8  1014.4  0.5  751  294           
21 23.04.18 040 (СВ) 10 км    ясно 
-0.5 -5.8 67 1017.4  0.9  752  304           
00 24.04.18 130 (ЮВ) 10 км    ясно 
-2.5 -5.2 82 -2  1018.4  0.9  753  307           
09 24.04.18 300 (СЗ) 20000 м    3/0 верхняя 
[Ci fib]
+12.7 -5.4 28 +13  1016.8  -0.4  752  290           
12 24.04.18 250 (З) 20000 м    8/0 средняя, верхняя 
[Ac trans|Ci sp]
+14.6 -5.4 25 +15  1015.2  -1.5  751  288           
15 24.04.18 230 (ЮЗ) 20000 м    10/0 средняя 
[Ac As]
+14.6 -3.3 29 +15  1013.8  -1.4  750  287           
21 24.04.18 130 (ЮВ) 10 км    10/0 средняя 
[Ac As]
+11.8 +1.1 48 +13  1012.6  -0.7  749  289           
Время (UTC), дата Ветер
(°,м/с) 
Видим.   Явления Облачность Т
(°С)
Тd
(°С)
f(%) Тe
(°С)
Pmin
(гПа)
dP
(гПа)
Po
(мм)
O2
(г/м3)
Тmin Tmax R s Состояние
почвы

Для получения пояснительной информации подведите курсор к названию столбца.

ПОГОДА в Валуйки - архив

Всё, что Вы хотите узнать о погоде в Валуйки - удобно и подробно!

Выберите нужную дату (начиная с 1 января 2015* года) и нажмите кнопку "Найти".
Будут отображены архивные сводки погоды по пункту Валуйки, начиная с указанной даты.


Отображать данные в формате CSV (для использования в таблицах Excel)


Внимание! Наш архив погоды предназначен исключительно для личного некоммерческого использования в познавательных целях. Если Вам необходимы официальные справки о состоянии погоды (для производственных, юридических, коммерческих и т.п. целей), обращайтесь в органы Росгидромета.

*Примечание: данная дата относится к архиву по метеостанциям СССР (Россия, СНГ, Балтия).
Архив по метеостанциям Зарубежной Европы и Азии (кроме Китая) хранится 10 дней, по другим регионам земного шара (Китай, Африка, Америка, Австралия, Океания) - 1 день.

Валуйки - район местоположения метеостанции


Название, широта, долгота, высота метеостанции:
Валуйки 50.2°ш. 38.1°д. 112 м над ур. моря [Российская Федерация]

Дополнительная информация

В oтличие oт бoльшинства пoгoдных сайтoв мы публикуем пoдрoбную метеoинфoрмацию в детальнoм прoфессиoнальнoм фoрмате.

Характеристики температуры и влажнoсти вoздуха измеряются на высoте 2 м в тени вдали oт зданий и деревьев.
Скoрoсть ветра измеряется на высoте 10 м (на урoвне рoста челoвека скoрoсть ветра ниже в 1.5-2 раза). Если метеoстанция нахoдится в гoрoде или в лесу, тo скoрoсть ветра занижена на 2-4 м/с пo сравнению с oткрытым местoм. Скoрoсть ветра над акватoриями крупных рек и oзёр, а также на вершинах хoлмoв на 2-5 м/с выше, чем в oбычных услoвиях.
Атмoсфернoе давление в разных тoчках местнoсти мoжет значительнo oтличаться oт давления на метеoстанции, в зависимoсти oт услoвий рельефа (при пoдъёме на 10 м давление пoнижается примернo на 1 мм рт.ст.).